sat.trackr.live / text

‹ back to catalog

SHIJIAN-6 05A (SJ-6 05A)

NORAD 49961 · 2021-122A

PAYLOAD ACTIVE UNKNOWN

§ Identity

Operator
Country
PRC
Launch date
2021-12-10
Launch site
JSC
Launch vehicle
Mass (kg)
RCS (m²)

External: N2YO · Heavens-Above · Gunter

§ Orbital elements

Epoch: 2026-05-25T04:03:55.378080Z

Period
96.04 min
Inclination
97.4059°
Eccentricity
0.0000599
Mean motion
14.99378381 rev/d
Perigee alt
568.4 km
Apogee alt
569.2 km
Semi-major
6,947.0 km
B*
1.1596e-4
RAAN
114.8429°
Arg perigee
141.9204°
Mean anomaly
218.2062°
Rev number
24,530

§ Raw data

SHIJIAN-6 05A (SJ-6 05A)1 49961U 21122A   26145.16939095  .00001364  00000+0  11596-3 0  99952 49961  97.4059 114.8429 0000599 141.9204 218.2062 14.99378381245306

JSON: /api/v1/satellites/49961 · /tle

For live sub-satellite position, see the globe view (requires WebGL).

§ Visibility from observer

Set your observer location to see the next 7 days of passes ≥ 10°. The values pass through the URL so the page stays shareable.

No JS? Fill the form by hand. The geolocation button needs JavaScript.